• In Deutschland
  • Länderverzeichnis
  • Für 7 Tage
  • Wassertemperatur
  • Satellitenkarten
  • Wetterkarte
  • Widgets
  • user-avatar
    Anmelden

    Stündliche Wetter Chaschuri

    Heute, 17 August, Freitag

    Zeit Temperatur Niederschläge Wind Luftdruck Luftfeuchtigkeit
    00:00 +13°C° 0,3 mm 2 m/S 615 mmHg 86%
    01:00 +13°C° 0,1 mm 2 m/S 615 mmHg 86%
    02:00 +13°C° 0,1 mm 2 m/S 615 mmHg 86%
    03:00 +13°C° 0,1 mm 1 m/S 614 mmHg 86%
    04:00 +13°C° 0 mm 1 m/S 615 mmHg 86%
    05:00 +13°C° 0 mm 1 m/S 615 mmHg 85%
    06:00 +13°C° 0 mm 1 m/S 615 mmHg 84%
    07:00 +16°C° 0 mm 1 m/S 615 mmHg 75%
    08:00 +20°C° 0 mm 1 m/S 616 mmHg 66%
    09:00 +22°C° 0 mm 1 m/S 617 mmHg 56%
    10:00 +24°C° 0 mm 1 m/S 617 mmHg 52%
    11:00 +25°C° 0 mm 2 m/S 617 mmHg 48%
    12:00 +26°C° 0 mm 2 m/S 618 mmHg 43%
    13:00 +26°C° 0,1 mm 2 m/S 617 mmHg 44%
    14:00 +26°C° 0,1 mm 2 m/S 617 mmHg 45%
    15:00 +26°C° 0,1 mm 2 m/S 617 mmHg 46%
    16:00 +25°C° 0,3 mm 2 m/S 616 mmHg 53%
    17:00 +24°C° 0,3 mm 2 m/S 616 mmHg 59%
    18:00 +21°C° 0,3 mm 2 m/S 615 mmHg 66%
    19:00 +19°C° 0,3 mm 2 m/S 615 mmHg 74%
    20:00 +18°C° 0,3 mm 1 m/S 614 mmHg 82%
    21:00 +15°C° 0,3 mm 1 m/S 614 mmHg 89%
    22:00 +15°C° 0,1 mm 1 m/S 614 mmHg 90%
    23:00 +14°C° 0,1 mm 1 m/S 614 mmHg 90%

    Morgen, 18 August, Samstag

    Zeit Temperatur Niederschläge Wind Luftdruck Luftfeuchtigkeit
    00:00 +14°C° 0,1 mm 1 m/S 614 mmHg 90%
    01:00 +14°C° 0 mm 1 m/S 613 mmHg 91%
    02:00 +13°C° 0 mm 1 m/S 613 mmHg 91%
    03:00 +13°C° 0 mm 1 m/S 613 mmHg 91%
    04:00 +13°C° 0 mm 1 m/S 613 mmHg 89%
    05:00 +13°C° 0 mm 1 m/S 613 mmHg 88%
    06:00 +13°C° 0 mm 1 m/S 613 mmHg 87%
    07:00 +15°C° 0 mm 1 m/S 614 mmHg 78%
    08:00 +19°C° 0 mm 1 m/S 614 mmHg 70%
    09:00 +21°C° 0 mm 1 m/S 615 mmHg 61%
    10:00 +21°C° 0,2 mm 2 m/S 615 mmHg 58%
    11:00 +23°C° 0,2 mm 2 m/S 615 mmHg 54%
    12:00 +24°C° 0,2 mm 2 m/S 615 mmHg 51%
    13:00 +24°C° 0,4 mm 2 m/S 615 mmHg 52%
    14:00 +24°C° 0,4 mm 2 m/S 615 mmHg 54%
    15:00 +24°C° 0,4 mm 3 m/S 614 mmHg 56%
    16:00 +21°C° 0,6 mm 3 m/S 614 mmHg 62%
    17:00 +20°C° 0,6 mm 2 m/S 614 mmHg 68%
    18:00 +19°C° 0,6 mm 2 m/S 613 mmHg 75%
    19:00 +17°C° 0,3 mm 2 m/S 613 mmHg 81%
    20:00 +16°C° 0,3 mm 2 m/S 613 mmHg 86%
    21:00 +14°C° 0,3 mm 1 m/S 613 mmHg 92%
    22:00 +14°C° 0,2 mm 1 m/S 613 mmHg 92%
    23:00 +14°C° 0,2 mm 1 m/S 613 mmHg 92%

    übermorgen, 19 August, Sonntag

    Zeit Temperatur Niederschläge Wind Luftdruck Luftfeuchtigkeit
    00:00 +13°C° 0,2 mm 1 m/S 613 mmHg 92%
    01:00 +13°C° 0,1 mm 1 m/S 613 mmHg 92%
    02:00 +13°C° 0,1 mm 1 m/S 612 mmHg 92%
    03:00 +12°C° 0,1 mm 1 m/S 612 mmHg 92%
    04:00 +12°C° 0,1 mm 1 m/S 612 mmHg 90%
    05:00 +12°C° 0,1 mm 1 m/S 612 mmHg 89%
    06:00 +12°C° 0,1 mm 1 m/S 612 mmHg 87%
    07:00 +14°C° 0 mm 1 m/S 613 mmHg 78%
    08:00 +17°C° 0 mm 2 m/S 614 mmHg 69%
    09:00 +19°C° 0 mm 2 m/S 614 mmHg 60%
    10:00 +20°C° 0,2 mm 2 m/S 615 mmHg 58%
    11:00 +21°C° 0,2 mm 2 m/S 615 mmHg 55%
    12:00 +22°C° 0,2 mm 3 m/S 615 mmHg 52%
    13:00 +21°C° 0,5 mm 3 m/S 615 mmHg 55%
    14:00 +21°C° 0,5 mm 2 m/S 614 mmHg 58%
    15:00 +21°C° 0,5 mm 2 m/S 614 mmHg 61%
    16:00 +20°C° 0,6 mm 2 m/S 614 mmHg 66%
    17:00 +19°C° 0,6 mm 2 m/S 614 mmHg 71%
    18:00 +18°C° 0,6 mm 2 m/S 613 mmHg 76%
    19:00 +16°C° 0,6 mm 2 m/S 613 mmHg 81%
    20:00 +15°C° 0,6 mm 1 m/S 613 mmHg 86%
    21:00 +14°C° 0,6 mm 1 m/S 613 mmHg 90%
    22:00 +13°C° 0,1 mm 1 m/S 613 mmHg 91%
    23:00 +13°C° 0,1 mm 1 m/S 613 mmHg 91%

    20 August, Montag

    Zeit Temperatur Niederschläge Wind Luftdruck Luftfeuchtigkeit
    00:00 +12°C° 0,1 mm 1 m/S 613 mmHg 92%
    01:00 +12°C° 0,2 mm 1 m/S 613 mmHg 92%
    02:00 +12°C° 0,2 mm 1 m/S 613 mmHg 92%
    03:00 +12°C° 0,2 mm 1 m/S 613 mmHg 92%
    04:00 +10°C° 0,2 mm 2 m/S 613 mmHg 91%
    05:00 +10°C° 0,2 mm 2 m/S 613 mmHg 91%
    06:00 +10°C° 0,2 mm 2 m/S 613 mmHg 90%
    07:00 +13°C° 0,1 mm 2 m/S 614 mmHg 82%
    08:00 +15°C° 0,1 mm 2 m/S 615 mmHg 74%
    09:00 +17°C° 0,1 mm 3 m/S 615 mmHg 66%
    10:00 +19°C° 0,2 mm 3 m/S 616 mmHg 61%
    11:00 +20°C° 0,2 mm 3 m/S 616 mmHg 57%
    12:00 +22°C° 0,2 mm 3 m/S 617 mmHg 52%
    13:00 +22°C° 0,3 mm 3 m/S 617 mmHg 52%
    14:00 +22°C° 0,3 mm 3 m/S 616 mmHg 52%
    15:00 +22°C° 0,3 mm 3 m/S 616 mmHg 52%
    16:00 +21°C° 0,5 mm 3 m/S 616 mmHg 57%
    17:00 +20°C° 0,5 mm 2 m/S 616 mmHg 63%
    18:00 +19°C° 0,5 mm 2 m/S 616 mmHg 68%
    19:00 +17°C° 0,2 mm 2 m/S 615 mmHg 75%
    20:00 +15°C° 0,2 mm 2 m/S 615 mmHg 82%
    21:00 +13°C° 0,2 mm 1 m/S 615 mmHg 90%
    22:00 +12°C° 0,3 mm 1 m/S 615 mmHg 89%
    23:00 +12°C° 0,3 mm 1 m/S 615 mmHg 89%

    21 August, Dienstag

    Zeit Temperatur Niederschläge Wind Luftdruck Luftfeuchtigkeit
    00:00 +12°C° 0,3 mm 1 m/S 615 mmHg 89%
    01:00 +11°C° 0,2 mm 1 m/S 615 mmHg 89%
    02:00 +11°C° 0,2 mm 1 m/S 615 mmHg 89%
    03:00 +11°C° 0,2 mm 1 m/S 615 mmHg 88%
    04:00 +11°C° 0,1 mm 1 m/S 615 mmHg 88%
    05:00 +11°C° 0,1 mm 1 m/S 615 mmHg 87%
    06:00 +11°C° 0,1 mm 1 m/S 615 mmHg 86%
    07:00 +13°C° 0,1 mm 1 m/S 616 mmHg 77%
    08:00 +16°C° 0,1 mm 1 m/S 617 mmHg 68%
    09:00 +20°C° 0,1 mm 1 m/S 618 mmHg 59%
    10:00 +20°C° 0,1 mm 2 m/S 618 mmHg 55%
    11:00 +21°C° 0,1 mm 2 m/S 618 mmHg 51%
    12:00 +24°C° 0,1 mm 2 m/S 618 mmHg 48%
    13:00 +24°C° 0,4 mm 2 m/S 618 mmHg 48%
    14:00 +24°C° 0,4 mm 2 m/S 618 mmHg 49%
    15:00 +24°C° 0,4 mm 2 m/S 618 mmHg 50%
    16:00 +21°C° 0,3 mm 2 m/S 617 mmHg 56%
    17:00 +20°C° 0,3 mm 2 m/S 617 mmHg 61%
    18:00 +19°C° 0,3 mm 2 m/S 617 mmHg 67%
    19:00 +17°C° 0,1 mm 2 m/S 617 mmHg 74%
    20:00 +15°C° 0,1 mm 1 m/S 616 mmHg 82%
    21:00 +13°C° 0,1 mm 1 m/S 616 mmHg 89%
    22:00 +13°C° 0 mm 1 m/S 616 mmHg 89%
    23:00 +12°C° 0 mm 1 m/S 616 mmHg 88%

    22 August, Mittwoch

    Zeit Temperatur Niederschläge Wind Luftdruck Luftfeuchtigkeit
    00:00 +12°C° 0 mm 1 m/S 616 mmHg 87%
    01:00 +12°C° 0 mm 1 m/S 616 mmHg 86%
    02:00 +12°C° 0 mm 1 m/S 616 mmHg 85%
    03:00 +11°C° 0 mm 1 m/S 616 mmHg 84%
    04:00 +11°C° 0 mm 1 m/S 616 mmHg 83%
    05:00 +11°C° 0 mm 1 m/S 616 mmHg 81%
    06:00 +11°C° 0 mm 1 m/S 616 mmHg 80%
    07:00 +14°C° 0 mm 1 m/S 617 mmHg 71%
    08:00 +16°C° 0 mm 1 m/S 618 mmHg 62%
    09:00 +19°C° 0 mm 2 m/S 618 mmHg 54%
    10:00 +20°C° 0 mm 2 m/S 619 mmHg 50%
    11:00 +23°C° 0 mm 2 m/S 619 mmHg 47%
    12:00 +24°C° 0 mm 2 m/S 619 mmHg 44%
    13:00 +24°C° 0,1 mm 2 m/S 619 mmHg 45%
    14:00 +24°C° 0,1 mm 3 m/S 619 mmHg 45%
    15:00 +24°C° 0,1 mm 3 m/S 618 mmHg 46%
    16:00 +22°C° 0,1 mm 3 m/S 618 mmHg 52%
    17:00 +21°C° 0,1 mm 2 m/S 618 mmHg 58%
    18:00 +19°C° 0,1 mm 2 m/S 618 mmHg 64%
    19:00 +17°C° 0 mm 2 m/S 617 mmHg 71%
    20:00 +15°C° 0 mm 2 m/S 617 mmHg 77%
    21:00 +13°C° 0 mm 1 m/S 617 mmHg 84%
    22:00 +13°C° 0 mm 1 m/S 616 mmHg 83%
    23:00 +12°C° 0 mm 1 m/S 616 mmHg 81%
    Mehr zeigen